Previsão horária em Abreu e Lima

Hoje, 16 Maio, Domingo

Tempo Temperatura Precipitação Vento Pressão Humidade
00:00 +25°C° 0 mm 4 m/s 758 mmHg 87%
01:00 +25°C° 0 mm 3 m/s 758 mmHg 86%
02:00 +25°C° 0 mm 3 m/s 758 mmHg 87%
03:00 +24°C° 0 mm 3 m/s 758 mmHg 87%
04:00 +23°C° 0 mm 4 m/s 757 mmHg 88%
05:00 +24°C° 0 mm 3 m/s 757 mmHg 88%
06:00 +24°C° 0 mm 3 m/s 758 mmHg 88%
07:00 +24°C° 0 mm 3 m/s 758 mmHg 89%
08:00 +26°C° 0.1 mm 4 m/s 758 mmHg 85%
09:00 +27°C° 0.1 mm 4 m/s 758 mmHg 81%
10:00 +28°C° 0.1 mm 4 m/s 759 mmHg 77%
11:00 +29°C° 0.1 mm 4 m/s 758 mmHg 76%
12:00 +29°C° 0.1 mm 4 m/s 758 mmHg 74%
13:00 +29°C° 0.1 mm 4 m/s 758 mmHg 73%
14:00 +29°C° 0.1 mm 4 m/s 758 mmHg 72%
15:00 +29°C° 0.1 mm 4 m/s 757 mmHg 72%
16:00 +29°C° 0.1 mm 5 m/s 757 mmHg 71%
17:00 +28°C° 0 mm 4 m/s 757 mmHg 76%
18:00 +27°C° 0 mm 4 m/s 758 mmHg 81%
19:00 +26°C° 0 mm 4 m/s 758 mmHg 86%
20:00 +26°C° 0.1 mm 3 m/s 758 mmHg 88%
21:00 +26°C° 0.1 mm 3 m/s 759 mmHg 89%
22:00 +25°C° 0.1 mm 3 m/s 759 mmHg 91%
23:00 +25°C° 0.2 mm 3 m/s 759 mmHg 91%

Amanhã, 17 Maio, Segunda-feira

Tempo Temperatura Precipitação Vento Pressão Humidade
00:00 +25°C° 0.2 mm 3 m/s 759 mmHg 91%
01:00 +25°C° 0.2 mm 3 m/s 759 mmHg 90%
02:00 +25°C° 0.1 mm 3 m/s 758 mmHg 91%
03:00 +25°C° 0.1 mm 3 m/s 758 mmHg 91%
04:00 +25°C° 0.1 mm 3 m/s 757 mmHg 92%
05:00 +25°C° 0 mm 3 m/s 758 mmHg 92%
06:00 +25°C° 0 mm 3 m/s 758 mmHg 92%
07:00 +25°C° 0 mm 3 m/s 758 mmHg 92%
08:00 +26°C° 0 mm 3 m/s 758 mmHg 86%
09:00 +27°C° 0 mm 3 m/s 759 mmHg 80%
10:00 +29°C° 0 mm 3 m/s 759 mmHg 75%
11:00 +29°C° 0 mm 3 m/s 759 mmHg 71%
12:00 +30°C° 0 mm 4 m/s 758 mmHg 67%
13:00 +32°C° 0 mm 4 m/s 757 mmHg 63%
14:00 +30°C° 0 mm 4 m/s 757 mmHg 65%
15:00 +30°C° 0 mm 4 m/s 757 mmHg 66%
16:00 +30°C° 0 mm 4 m/s 756 mmHg 68%
17:00 +29°C° 0 mm 4 m/s 757 mmHg 74%
18:00 +27°C° 0 mm 3 m/s 757 mmHg 80%
19:00 +26°C° 0 mm 3 m/s 758 mmHg 86%
20:00 +26°C° 0 mm 3 m/s 758 mmHg 87%
21:00 +26°C° 0 mm 3 m/s 758 mmHg 88%
22:00 +25°C° 0 mm 3 m/s 759 mmHg 89%
23:00 +25°C° 0.1 mm 3 m/s 758 mmHg 90%

Depois de amanhã, 18 Maio, Terça-feira

Tempo Temperatura Precipitação Vento Pressão Humidade
00:00 +25°C° 0.1 mm 3 m/s 758 mmHg 91%
01:00 +25°C° 0.1 mm 3 m/s 758 mmHg 92%
02:00 +25°C° 0.1 mm 3 m/s 758 mmHg 93%
03:00 +24°C° 0.1 mm 3 m/s 758 mmHg 93%
04:00 +24°C° 0.1 mm 2 m/s 757 mmHg 94%
05:00 +24°C° 0.1 mm 2 m/s 758 mmHg 93%
06:00 +24°C° 0.1 mm 3 m/s 758 mmHg 92%
07:00 +24°C° 0.1 mm 3 m/s 758 mmHg 92%
08:00 +26°C° 0.1 mm 3 m/s 759 mmHg 86%
09:00 +28°C° 0.1 mm 3 m/s 759 mmHg 80%
10:00 +29°C° 0.1 mm 3 m/s 759 mmHg 74%
11:00 +30°C° 0.1 mm 3 m/s 759 mmHg 71%
12:00 +30°C° 0.1 mm 3 m/s 758 mmHg 68%
13:00 +31°C° 0.1 mm 3 m/s 758 mmHg 66%
14:00 +31°C° 0.1 mm 3 m/s 757 mmHg 67%
15:00 +30°C° 0.1 mm 3 m/s 757 mmHg 68%
16:00 +30°C° 0.1 mm 3 m/s 757 mmHg 69%
17:00 +29°C° 0.2 mm 3 m/s 757 mmHg 75%
18:00 +28°C° 0.2 mm 2 m/s 757 mmHg 81%
19:00 +26°C° 0.2 mm 2 m/s 758 mmHg 87%
20:00 +26°C° 0.7 mm 2 m/s 758 mmHg 89%
21:00 +26°C° 0.7 mm 1 m/s 758 mmHg 90%
22:00 +26°C° 0.7 mm 1 m/s 759 mmHg 91%
23:00 +26°C° 0.2 mm 1 m/s 759 mmHg 91%

19 Maio, Quarta-feira

Tempo Temperatura Precipitação Vento Pressão Humidade
00:00 +26°C° 0.2 mm 1 m/s 758 mmHg 91%
01:00 +25°C° 0.2 mm 1 m/s 758 mmHg 91%
02:00 +25°C° 0.5 mm 2 m/s 758 mmHg 92%
03:00 +25°C° 0.5 mm 2 m/s 758 mmHg 92%
04:00 +25°C° 0.5 mm 1 m/s 757 mmHg 92%
05:00 +25°C° 0 mm 2 m/s 758 mmHg 92%
06:00 +25°C° 0 mm 2 m/s 758 mmHg 92%
07:00 +25°C° 0 mm 2 m/s 758 mmHg 92%
08:00 +27°C° 0 mm 2 m/s 758 mmHg 85%
09:00 +28°C° 0 mm 2 m/s 759 mmHg 78%
10:00 +30°C° 0 mm 2 m/s 759 mmHg 72%
11:00 +27°C° 0.2 mm 2 m/s 757 mmHg 84%
12:00 +29°C° 0.2 mm 3 m/s 757 mmHg 77%
13:00 +30°C° 0.2 mm 3 m/s 758 mmHg 69%
14:00 +30°C° 0.5 mm 3 m/s 757 mmHg 73%
15:00 +29°C° 0.5 mm 3 m/s 757 mmHg 77%
16:00 +29°C° 0.5 mm 3 m/s 756 mmHg 81%
17:00 +28°C° 0.3 mm 3 m/s 757 mmHg 84%
18:00 +27°C° 0.3 mm 3 m/s 757 mmHg 87%
19:00 +26°C° 0.3 mm 2 m/s 758 mmHg 90%
20:00 +26°C° 0.2 mm 2 m/s 758 mmHg 90%
21:00 +26°C° 0.2 mm 2 m/s 758 mmHg 90%
22:00 +26°C° 0.2 mm 2 m/s 758 mmHg 90%
23:00 +26°C° 0.4 mm 2 m/s 758 mmHg 91%

20 Maio, Quinta-feira

Tempo Temperatura Precipitação Vento Pressão Humidade
00:00 +26°C° 0.4 mm 2 m/s 758 mmHg 91%
01:00 +25°C° 0.4 mm 1 m/s 758 mmHg 91%
02:00 +25°C° 0.4 mm 1 m/s 757 mmHg 91%
03:00 +25°C° 0.4 mm 1 m/s 757 mmHg 92%
04:00 +25°C° 0.4 mm 1 m/s 757 mmHg 92%
05:00 +25°C° 0.4 mm 1 m/s 757 mmHg 92%
06:00 +25°C° 0.4 mm 1 m/s 757 mmHg 92%
07:00 +25°C° 0.4 mm 1 m/s 757 mmHg 91%
08:00 +26°C° 0.4 mm 2 m/s 758 mmHg 88%
09:00 +27°C° 0.4 mm 2 m/s 758 mmHg 85%
10:00 +28°C° 0.4 mm 2 m/s 758 mmHg 82%
11:00 +29°C° 0.2 mm 2 m/s 758 mmHg 77%
12:00 +30°C° 0.2 mm 3 m/s 758 mmHg 71%
13:00 +31°C° 0.2 mm 3 m/s 757 mmHg 65%
14:00 +30°C° 0.2 mm 3 m/s 757 mmHg 68%
15:00 +30°C° 0.2 mm 3 m/s 757 mmHg 72%
16:00 +29°C° 0.2 mm 3 m/s 756 mmHg 75%
17:00 +28°C° 0.3 mm 3 m/s 757 mmHg 80%
18:00 +27°C° 0.3 mm 2 m/s 757 mmHg 85%
19:00 +26°C° 0.3 mm 2 m/s 757 mmHg 89%
20:00 +26°C° 0.1 mm 2 m/s 758 mmHg 89%
21:00 +26°C° 0.1 mm 2 m/s 758 mmHg 89%
22:00 +26°C° 0.1 mm 2 m/s 758 mmHg 89%
23:00 +26°C° 0 mm 2 m/s 758 mmHg 89%

21 Maio, Sexta-feira

Tempo Temperatura Precipitação Vento Pressão Humidade
00:00 +26°C° 0 mm 2 m/s 758 mmHg 89%
01:00 +26°C° 0 mm 2 m/s 757 mmHg 89%
02:00 +26°C° 0 mm 2 m/s 757 mmHg 89%
03:00 +26°C° 0 mm 2 m/s 757 mmHg 90%
04:00 +26°C° 0 mm 2 m/s 757 mmHg 90%
05:00 +26°C° 0 mm 2 m/s 757 mmHg 90%
06:00 +26°C° 0 mm 3 m/s 757 mmHg 90%
07:00 +26°C° 0 mm 3 m/s 758 mmHg 90%
08:00 +27°C° 0.1 mm 3 m/s 758 mmHg 84%
09:00 +28°C° 0.1 mm 3 m/s 758 mmHg 79%
10:00 +30°C° 0.1 mm 4 m/s 759 mmHg 74%
11:00 +30°C° 0.1 mm 4 m/s 758 mmHg 72%
12:00 +30°C° 0.1 mm 4 m/s 758 mmHg 70%
13:00 +32°C° 0.1 mm 4 m/s 757 mmHg 67%
14:00 +30°C° 0.2 mm 4 m/s 757 mmHg 70%
15:00 +30°C° 0.2 mm 4 m/s 757 mmHg 74%
16:00 +29°C° 0.2 mm 4 m/s 757 mmHg 77%
17:00 +28°C° 0.2 mm 4 m/s 757 mmHg 80%
18:00 +27°C° 0.2 mm 3 m/s 757 mmHg 84%
19:00 +27°C° 0.2 mm 3 m/s 758 mmHg 87%
20:00 +26°C° 0 mm 3 m/s 758 mmHg 87%
21:00 +26°C° 0 mm 3 m/s 758 mmHg 87%
22:00 +26°C° 0 mm 3 m/s 758 mmHg 88%
23:00 +26°C° 0 mm 3 m/s 758 mmHg 87%
Mostrar mais

Necessitamos do seu Consentimento

A Meteoprog e os seus Fornecedores de Serviços podem armazenar e aceder a dados pessoais como cookies, identificadores do dispositivo ou outras tecnologias semelhantes existentes no seu dispositivo e processar estes dados para personalizar conteúdos e anúncios, assim como funcionalidades nas redes sociais e análise de tráfego.

  • Armazenar e/ou aceder a informações no seu dispositivo

    Os cookies, identificadores do dispositivo ou outras informações podem ser armazenados ou acedidos no seu dispositivo, para os fins acima indicados.

  • Anúncios e conteúdos personalizados, medição de anúncios e conteúdos, dados sobre o público-alvo e desenvolvimento de produtos

    Os anúncios e os conteúdos podem ser personalizados com base num perfil. Podem ser adicionados dados adicionais para uma maior personalização dos anúncios e dos conteúdos. A eficácia dos anúncios e dos conteúdos pode ser medida. Podem ser obtidas informações sobre o público que visualizou os anúncios e os conteúdos. Estes dados podem ser usados para desenvolver ou melhorar sistemas, softwares ou a experiência do utilizador.

Ao clicar em "Eu concordo”, permitirá o uso de cookies, identificadores do dispositivo e web beacons mencionados ou outras tecnologias semelhantes. As configurações do navegador do seu dispositivo podem ser alteradas.

Para certos fins, podem ser invocados interesses legítimos ao invés de consentimento. Pode ler mais informação sobre este assunto na nossa Política de Privacidade e Cookies.